Regional Weather Roundup
Issued by NWS Little Rock, AR

Home | Current Version | Previous Version | Graphics & Text | Print | Product List | Glossary On
Versions: 1 2 3 4 5 6 7 8 9 10 11 12 13 14 15 16 17 18 19 20 21 22 23 24 25 26 27 28 29 30 31 32 33 34 35 36 37 38 39 40 41 42 43 44 45 46 47 48
000
ASUS44 KLZK 010105
RWRLZK

WEATHER ROUNDUP FOR ARKANSAS
NATIONAL WEATHER SERVICE LITTLE ROCK AR
800 PM CDT SUN MAY 31 2015

NOTE: "FAIR" INDICATES FEW OR NO CLOUDS BELOW 12,000 FEET WITH NO
SIGNIFICANT WEATHER AND/OR OBSTRUCTIONS TO VISIBILITY.

ARZ001-003-010-029-010200-
NORTHWEST ARKANSAS

CITY           SKY/WX    TMP DP  RH WIND       PRES   REMARKS
FAYETTEVILLE   CLOUDY    65  61  87 VRB5      30.07R
FORT SMITH     CLOUDY    71  62  73 CALM      30.03R
HARRISON       CLOUDY    64  60  87 N5        30.08S
BENTONVILLE    MOCLDY    64  57  77 NE6       30.09R
ROGERS         MOCLDY    64  59  83 N6        30.09R
SILOAM SPGS    CLOUDY    64  55  72 N5        30.09R
HIGHFILL       CLOUDY    66  59  78 N6        30.08R
SPRINGDALE     CLOUDY    64  61  88 N6        30.09R
$$

ARZ004-005-016-010200-
NORTH CENTRAL ARKANSAS

CITY           SKY/WX    TMP DP  RH WIND       PRES   REMARKS
BATESVILLE     CLOUDY    66  64  94 CALM      30.05R
FLIPPIN        MOCLDY    68  61  77 N6        30.05R
MTN HOME       CLOUDY    67  60  78 VRB3      30.06R
$$

ARZ040-041-010200-
WEST CENTRAL ARKANSAS

CITY           SKY/WX    TMP DP  RH WIND       PRES   REMARKS
MENA           MOCLDY    70  63  78 NE3       30.05R
MOUNT IDA      MOCLDY    68  65  90 CALM      30.02R
$$

ARZ009-017-025-026-028-010200-
NORTHEAST ARKANSAS

CITY           SKY/WX    TMP DP  RH WIND       PRES   REMARKS
CORNING          N/A     64  63  94 NE14      30.07R
JONESBORO      MOCLDY    65  62  90 NE6       30.05R
NEWPORT        MOCLDY    69  65  87 NE10      30.05R
WALNUT RIDGE   FAIR      66  61  82 NE9       30.06R
BLYTHEVILLE    CLOUDY    65  64  97 NE16      30.05R
$$

ARZ022-023-033-042-044-010200-
CENTRAL ARKANSAS

CITY           SKY/WX    TMP DP  RH WIND       PRES   REMARKS
LITTLE ROCK    FAIR      71  62  73 NE7       30.03R
N LITTLE ROCK  PTCLDY    69  66  92 NE8       30.03R
JACKSONVILLE   PTCLDY    70  64  83 N6        30.03R
SEARCY         CLOUDY    69  65  86 N6        30.05R
HOT SPRINGS    MOCLDY    69  64  84 CALM      30.02S
RUSSELLVILLE   CLOUDY    69  63  81 E3        30.04R
CLINTON        FAIR      66  64  94 CALM      30.06S
$$

ARZ036-010200-
EAST ARKANSAS

CITY           SKY/WX    TMP DP  RH WIND       PRES   REMARKS
WEST MEMPHIS   CLOUDY    68  66  93 NE9       30.01R
$$

ARZ050-053-066-070-073-010200-
SOUTHWEST ARKANSAS

CITY           SKY/WX    TMP DP  RH WIND       PRES   REMARKS
ARKADELPHIA    FAIR      73  69  87 N7        30.02R
CAMDEN         MOCLDY    73  64  73 N5        30.00R
TEXARKANA      FAIR      75  64  68 NW6       30.01R
EL DORADO      CLOUDY    73  67  81 E5        30.00R
DE QUEEN       MOCLDY    71  65  81 NE5       30.00R
$$

ARZ056-057-069-010200-
SOUTHEAST ARKANSAS

CITY           SKY/WX    TMP DP  RH WIND       PRES   REMARKS
PINE BLUFF     MOCLDY    71  66  84 N3        30.02R
STUTTGART      FAIR      72  63  73 NE15      30.02R
MONTICELLO     FAIR      72  68  87 NE5       30.01R

$$




USA.gov is the U.S. government's official web portal to all federal, state and local government web resources and services.